Regional Weather Roundup
Issued by NWS Grand Forks, ND

Home | Current Version | Previous Version | Graphics & Text | Print | Product List | Glossary On
Versions: 1 2 3 4 5 6 7 8 9 10 11 12 13 14 15 16 17 18 19 20 21 22 23 24 25 26 27 28 29 30 31 32 33 34 35 36 37 38 39 40 41 42 43 44 45 46 47 48 49 50
000
ASUS43 KFGF 091831
RWRFGF
PRAIRIE TO PINES  WEATHER ROUNDUP
NATIONAL WEATHER SERVICE EASTERN NORTH DAKOTA/GRAND FORKS ND
100 PM CDT WED JUL 09 2014

 **SATELLITE DATA USED TO AUGMENT SKY COVER AT AUTOMATED STATIONS**
 *****  WEATHER ACROSS EASTERN NORTH DAKOTA  *****

CITY           SKY/WX    TMP DP  RH WIND       PRES   REMARKS
GRAND FORKS    MOSUNNY   69  51  52 NW7       30.03F
6HR MIN TEMP:  56; 6HR MAX TEMP:  70;

GRAND FRKS AFB SUNNY     69  51  51 NE7       30.05F
GRAND FRKS NWS   N/A     70 N/A N/A N7          N/A
DEVILS LAKE    PTSUNNY   68  48  49 NE5       30.04S
6HR MIN TEMP:  55; 6HR MAX TEMP:  70;

FARGO          SUNNY     72  51  47 NW7G17    30.03S
WAHPETON ARPT  PTCLDY    73  50  43 N10       30.03F
$$

 ***** WEATHER ACROSS CENTRAL AND WESTERN NORTH DAKOTA  *****

CITY           SKY/WX    TMP DP  RH WIND       PRES   REMARKS
BISMARCK       SUNNY     74  58  57 E6        30.04F
6HR MIN TEMP:  53; 6HR MAX TEMP:  74;

MINOT          SUNNY     72  56  57 SE3       30.02F
6HR MIN TEMP:  55; 6HR MAX TEMP:  73;

JAMESTOWN      SUNNY     70  51  51 S5        30.05S
6HR MIN TEMP:  56; 6HR MAX TEMP:  72;

MINOT AFB      SUNNY     72  58  60 SE6       30.02F
GARRISON         N/A     72  56  57 SE7       30.03F
WILLISTON      SUNNY     80  54  40 S7        30.00F HAZE
6HR MIN TEMP:  54; 6HR MAX TEMP:  80;

DICKINSON      SUNNY     77  55  46 MISG      30.02F
6HR MIN TEMP:  51; 6HR MAX TEMP:  77;

HETTINGER      SUNNY     77  52  41 S7        30.05F
6HR MIN TEMP:  48; 6HR MAX TEMP:  78;

$$

 *****  OTHER AIRPORT OBSERVATIONS IN OUR AREA  *****

CITY           SKY/WX    TMP DP  RH WIND       PRES   REMARKS
WALHALLA       MOCLDY    66  50  55 N7          N/A
GRAFTON AIRPOR FAIR      68  48  49 N9        30.04S
VALLEY CITY AR FAIR      72  54  53 N5        30.05F
CANDO          MOCLDY    68  50  52 CALM      30.05F
CAVALIER APRT  FAIR      68  50  52 N9        30.04S
GWINNER        PTCLDY    73  54  49 E5        30.06S
SHEYENNE NWR     N/A     75  56  51 N5        29.95
ROLLA            N/A     66  50  55 CALM      30.06F
 ***** THE ABOVE OBSERVATIONS ARE NON NWS ARE NOT QUALITY
       CONTROLLED AND MAY MIS-REPORT RAIN FOR SNOW...
$$

  *****  WEATHER ACROSS NORTHERN MINNESOTA  *****

CITY           SKY/WX    TMP DP  RH WIND       PRES   REMARKS
FLAG ISLAND    SUNNY     66  50  55 CALM      30.00S
WARROAD        SUNNY     68  55  64 E7        30.02F
ROSEAU         FAIR      68  57  68 CALM      30.02
HALLOCK        SUNNY     68  48  49 CALM      30.03S
THF RVR FALLS  MOSUNNY   68  52  56 NE5       30.03F
6HR MIN TEMP:  55; 6HR MAX TEMP:  66;

BAUDETTE       SUNNY     68  50  52 NW7       30.02S
6HR MIN TEMP:  55; 6HR MAX TEMP:  68;

WASKISH        MOSUNNY   66  55  68 SW7       30.02S
CROOKSTON      MOSUNNY   68  54  60 N10       30.04S
$$
  *****  WEATHER ACROSS CENTRAL AND WEST MINNESOTA  *****

CITY           SKY/WX    TMP DP  RH WIND       PRES   REMARKS
FOSSTON        MOSUNNY   70  52  52 NW5       30.04S
BEMIDJI        PTSUNNY   67  51  56 NW7       30.02S
PARK RAPIDS    MOSUNNY   70  50  49 NW8       30.01F
6HR MIN TEMP:  58; 6HR MAX TEMP:  72;

ELBOW LAKE     FAIR      72  54  53 NW13      30.03S
WADENA         SUNNY     70  54  56 NW7       30.02S
DETROIT LAKES  MOSUNNY   70  50  49 NW10      30.05S
MOORHEAD       SUNNY     72  52  49 N8        30.04S
FERGUS FALLS   MOSUNNY   72  50  46 N12G20    30.03S
MORRIS MN      SUNNY     73  55  53 N10       30.02S
STAPLES        MOSUNNY   72  54  53 NW7       30.02S
$$
  *****  WEATHER ELSEWHERE ACROSS MINNESOTA  *****

CITY           SKY/WX    TMP DP  RH WIND       PRES   REMARKS
DULUTH         MOSUNNY   70  48  45 N6        29.99S
6HR MIN TEMP:  54; 6HR MAX TEMP:  70;

INTRNTL FALLS  PTSUNNY   69  50  50 NW6       30.00S
6HR MIN TEMP:  51; 6HR MAX TEMP:  69;

ELY            SUNNY     64  45  48 N9        30.00S
CLOQUET        SUNNY     70  48  46 NW5G17    30.00S
WHEATON        SUNNY     72  54  53 CALM      30.05S
BRAINERD       MOSUNNY   77  52  41 N5        30.01F
6HR MIN TEMP:  64; 6HR MAX TEMP:  77;

HIBBING        PTSUNNY   70  50  49 N10       30.01R
6HR MIN TEMP:  49; 6HR MAX TEMP:  71;

ALEXANDRIA     MOSUNNY   71  50  47 NW8       30.04S
6HR MIN TEMP:  59; 6HR MAX TEMP:  73;

SAINT CLOUD    MOSUNNY   76  54  46 N5        30.00F
6HR MIN TEMP:  58; 6HR MAX TEMP:  77;

MINNEAPOLIS    PTSUNNY   75  54  47 W5        30.00F
6HR MIN TEMP:  60; 6HR MAX TEMP:  75;

$$

  *****  WEATHER ACROSS SOUTH DAKOTA  *****

CITY           SKY/WX    TMP DP  RH WIND       PRES   REMARKS
SIOUX FALLS    PTSUNNY   78  57  48 NW5       30.04F
6HR MIN TEMP:  59; 6HR MAX TEMP:  79;

BROOKINGS      NOT AVBL
WATERTOWN      MOSUNNY   74  53  48 NW7       30.05S
6HR MIN TEMP:  57; 6HR MAX TEMP:  76;

HURON          MOSUNNY   80  56  43 VRB5      30.03F HAZE
6HR MIN TEMP:  56; 6HR MAX TEMP:  80;

SISSETON         N/A     74  55  51 N6        30.03F
ABERDEEN       SUNNY     73  56  54 VRB5      30.05S
6HR MIN TEMP:  56; 6HR MAX TEMP:  74;

MITCHELL       SUNNY     81  58  45 VRB3      30.04F
PIERRE         SUNNY     79  50  36 VRB3      30.02F
6HR MIN TEMP:  56; 6HR MAX TEMP:  80;

MOBRIDGE       SUNNY     76  59  55 CALM      30.02F HAZE
RAPID CITY     SUNNY     76  56  49 SE15      30.06S
6HR MIN TEMP:  58; 6HR MAX TEMP:  76;

$$

  *****  SOME WEATHER IN NEARBY STATES *****

CITY           SKY/WX    TMP DP  RH WIND       PRES   REMARKS
GLASGOW MT     SUNNY     82  49  31 SE10      29.94F
6HR MIN TEMP:  58; 6HR MAX TEMP:  82;

GREAT FALLS MT SUNNY     84  50  30 S7        29.94F
6HR MIN TEMP:  53; 6HR MAX TEMP:  84;

CHEYENNE WY    SUNNY     79  55  43 SE12      30.16S
6HR MIN TEMP:  56; 6HR MAX TEMP:  81;

SCOTTSBLUFF NE MOSUNNY   79  60  52 NW9       30.03F
6HR MIN TEMP:  58; 6HR MAX TEMP:  79; 6HR PCP:  0.06;

OMAHA NE       MOSUNNY   80  55  42 CALM      30.06F
6HR MIN TEMP:  63; 6HR MAX TEMP:  80;

DES MOINES IA  MOSUNNY   80  54  40 VRB3      30.05F
6HR MIN TEMP:  62; 6HR MAX TEMP:  80;

DAVENPORT IA   SUNNY     75  55  49 NW8       30.03R
6HR MIN TEMP:  61; 6HR MAX TEMP:  76;

CHICAGO IL     MOSUNNY   78  55  44 NW12      29.95R
6HR MIN TEMP:  66; 6HR MAX TEMP:  78;

EAU CLAIRE WI  PTSUNNY   71  51  49 NW9       30.00S
6HR MIN TEMP:  59; 6HR MAX TEMP:  72;

LA CROSSE WI   SUNNY     76  51  41 NW8       30.01S
6HR MIN TEMP:  63; 6HR MAX TEMP:  76;

$$

  *****  SOME NATIONAL WEATHER *****

CITY           SKY/WX    TMP DP  RH WIND       PRES   REMARKS
LA GUARDIA NY  PTSUNNY   87  57  35 SW13      29.88F
6HR MIN TEMP:  75; 6HR MAX TEMP:  88;

RALEIGH NC     PTSUNNY   90  66  45 SW8       29.98F HX  92
6HR MIN TEMP:  78; 6HR MAX TEMP:  94;

ATLANTA GA     PTSUNNY   88  68  51 W10G17    30.04F HX  91
6HR MIN TEMP:  76; 6HR MAX TEMP:  88;

NEW ORLEANS LA CLOUDY    88  75  65 NW6       30.08F HX  97
6HR MIN TEMP:  78; 6HR MAX TEMP:  88; 6HR PCP:  0.01;

OKLAHOMA CITY  PTSUNNY   78  69  73 S10       30.08F
6HR MIN TEMP:  68; 6HR MAX TEMP:  78; 6HR PCP:  0.55;

ALBUQUERQUE NM MOSUNNY   80  52  37 VRB3      30.22F
6HR MIN TEMP:  66; 6HR MAX TEMP:  81;

SALT LAKE CITY CLOUDY    87  48  25 S13       30.03F
6HR MIN TEMP:  75; 6HR MAX TEMP:  89;

LOS ANGELES CA MOSUNNY   74  62  66 W8        29.97F
6HR MIN TEMP:  69; 6HR MAX TEMP:  74;

BOISE ID       PTSUNNY   88  51  28 W8        29.95S



USA.gov is the U.S. government's official web portal to all federal, state and local government web resources and services.